User: anonymous
Location: Unspecified
(0.0000°N, 0.0000°E)
Time: 15:37:28
(UTC+00:00)
Language:

Explorer 7 - Orbit

View from above orbital plane
View from above orbital plane
View from above satellite
View from above satellite

Ground track
Ground track

The orbit data is extracted from the following two-line orbital elements,

1 00022U 59009A   14203.09376973  .00000783  00000-0  89916-4 0  9693
2 00022 050.2859 121.1619 0154377 315.3753 043.4850 14.89448684902854
Epoch (UTC): 22 July 2014 02:15:01
Eccentricity: 0.0154377
inclination: 50.2859°
perigee height: 492 km
apogee height: 707 km
right ascension of ascending node: 121.1619°
argument of perigee: 315.3753°
revolutions per day: 14.89448684
mean anomaly at epoch: 43.4850°
orbit number at epoch: 90285

The dashed part of the orbit path shows where the satellite is in the earth's shadow,  

DLR